User: anonymous   Login
Location: ????????
(55.0808°N, 38.5463°E)
Time: 08:25:05
(UTC+00:00)
Language:

Meteor 1-19 Rocket - Orbit

View from above orbital plane
View from above orbital plane
View from above satellite
View from above satellite

Ground track
Ground track

The orbit data is extracted from the following two-line orbital elements,

1 07493U 74083B   24169.91702857  .00000345  00000-0  18959-3 0  9993
2 07493  81.1568 178.1699 0086384  90.3233 270.7835 14.07789216548301
Epoch (UTC): 17 June 2024 22:00:31
Eccentricity: 0.0086384
inclination: 81.1568°
perigee height: 804 km
apogee height: 929 km
right ascension of ascending node: 178.1699°
argument of perigee: 90.3233°
revolutions per day: 14.07789216
mean anomaly at epoch: 270.7835°
orbit number at epoch: 54830

The dashed part of the orbit path shows where the satellite is in the earth's shadow,  

DLR